loading
DOY 175 | 2024-06-23T10:57:42Z

STARLINK-31971, 59934

Orbit data source: Space-Track

STARLINK-31971, 59934 is a payload satellite owned by SpaceX/Seattle (US) in LEO that was launched on Sat, 01 Jun 2024 UTC via a Falcon 9 launch vehicle from the Air Force Eastern Test Range (AFETR). Payloads include a variety of satellites, spacecraft, and rockets equipped with specific instruments for various scientific and technological missions. These include communications satellites like Starlink; space stations such as the ISS; scientific satellites like the Hubble; Earth observation satellites from companies like Planet Labs, Umbra, and HawkEye 360; GPS; miniature CubeSats for education and research; and military/defense satellites.

Loading next visibility...
Loading greatness...
STARLINK-31971 details
NORAD ID59934
COSPAR ID
2024-106N
Orbit
LEO
Last TLE update5 hours ago
Origin
Flag of USSpaceX/Seattle (US)
ManufacturerSpaceX/Seattle
BusStarlink V2M
MotorUnknown
Mass750 kg wet, ~700 kg dry
Launch date (UTC)
2024-06-01 (3 weeks ago)
Launch vehicle
Falcon 9
Launch site
Air Force Eastern Test Range (AFETR)
Object type
Payload
Rocket body
Debris
Radar Cross SectionLarge (>1 m²)
Predictive object data (real-time)
Latitude-43.15458°
Longitude-166.25052°
Altitude341.116 km
Speed7.705 km/s
Apparent Right ascension11h 34m 14s
Apparent Declination-43° 34' 23"
Sunlit
Object is in full shadow
Predictive observer data (real-time)
Local Sidereal Time22:05:39
Azimuth250.246° W
Elevation-73.132°
Doppler factor1
Orbital elements
Apogee330.253 km
Perigee328.608 km
Semi-major axis6,707.568 km
Eccentricity0.0001226
Inclination42.9973°
RAAN287.8752°
Arg. of periapsis269.406°
True anomaly261.91919°
Mean anomaly261.9331°
Mean motion3.9509 °/min
BSTAR-0.0056666
Period91.12 mins
Definitive object data (Epoch: 2024-06-23T06:00:00.999Z)
Latitude5.88095°
Longitude99.66291°
Altitude326.753 km
Speed7.715 km/s
True Right ascension06h 46m 16s
True Declination5° 50' 38"
Sunlit
Object was in daylight at TLE epoch
TLE from 5 hours ago
0 STARLINK-31971
1 59934U 24106N   24175.25001157 -.01015062  00000-0 -56666-2 0  9991
2 59934  42.9973 287.8752 0001226 269.4060 261.9331 15.81060631  4520
Epoch: 2024-06-23T06:00Z
No data available

STARLINK-31971 Visibility forecast

Observer location: 39.9160978°, -105.1181434, 0m alt.

STARLINK-31971 is not visible in the next 10 days
Span
Click to sort rows by Start time (UTC) header in descending order
Start Az.
Max El. time (UTC)
Max El. Az.
Max El.
End time (UTC)
End Az.